Weather History for Shirley, NY

Change the Weather History Date:

Saturday, April 27, 2013

  Actual Average (KISP) Record (KISP)
Temperature  
Mean Temperature 50 °F 53 °F  
Max Temperature 64 °F 62 °F 81 °F (1990)
Min Temperature 39 °F 44 °F 32 °F (2002)
Degree Days  
Heating Degree Days 14 12  
Month to date heating degree days 443  
Since 1 July heating degree days 5135  
Cooling Degree Days 0 0  
Month to date cooling degree days 0  
Year to date cooling degree days 0  
Moisture  
Dew Point 37 °F    
Average Humidity 66    
Maximum Humidity 93    
Minimum Humidity 26    
Precipitation  
Precipitation 0.00 in 0.14 in 1.04 in (2007)
Month to date precipitation 3.94  
Year to date precipitation 15.28  
Snow  
Snow 0.00 in 0.00 in - ()
Month to date snowfall 0.6  
Since 1 July snowfall 24.8  
Snow Depth -    
Sea Level Pressure  
Sea Level Pressure 30.37 in    
Wind  
Wind Speed 6 mph (SE)    
Max Wind Speed 12 mph    
Max Gust Speed -    
Visibility 7 miles    
Events      
T = Trace of Precipitation, MM = Missing Value Source: NWS Daily Summary

Daily Weather History Graph

Daily Weather History Graph

Search for Another Location

Airport:

Trip Planner

Search our weather history database for the weather conditions in past years. The results will help you decide how hot, cold, wet, or windy it might be!

Date:

Astronomy

Apr. 27, 2013 Rise Set
Actual Time 5:54 AM EDT 7:43 PM EDT
Civil Twilight 5:25 AM EDT 8:13 PM EDT
Nautical Twilight 4:49 AM EDT 8:49 PM EDT
Astronomical Twilight 4:11 AM EDT 9:27 PM EDT
Moon 10:10 PM EDT (4/27) 7:10 AM EDT (4/27)
Length of Visible Light 14h 47m
Length of Day
13h 49m
Waning Gibbous, 95% of the Moon is Illuminated
Apr 27
Waning Gibbous
May 2
Last Quarter
May 9
New
May 18
First Quarter
May 25
Full

Hourly Weather History & Observations

Time (EDT) Temp. Windchill Dew Point Humidity Pressure Visibility Wind Dir Wind Speed Gust Speed Precip Events Conditions
12:56 AM 48.0 °F - 35.1 °F 61% 30.42 in 10.0 mi North 5.8 mph - N/A   Clear
1:56 AM 46.0 °F 42.5 °F 34.0 °F 63% 30.42 in 10.0 mi North 6.9 mph - N/A   Clear
2:56 AM 46.9 °F - 32.0 °F 56% 30.40 in 10.0 mi North 5.8 mph - N/A   Clear
3:56 AM 46.0 °F 43.9 °F 30.9 °F 56% 30.40 in 10.0 mi North 4.6 mph - N/A   Clear
4:56 AM 43.0 °F 39.5 °F 30.9 °F 62% 30.40 in 10.0 mi NNW 5.8 mph - N/A   Clear
5:56 AM 39.9 °F 37.8 °F 30.0 °F 68% 30.40 in 10.0 mi NNW 3.5 mph - N/A   Clear
6:56 AM 45.0 °F 42.6 °F 33.1 °F 63% 30.41 in 10.0 mi North 4.6 mph - N/A   Clear
7:56 AM 50.0 °F - 32.0 °F 50% 30.42 in 10.0 mi North 8.1 mph - N/A   Clear
8:56 AM 54.0 °F - 30.9 °F 41% 30.42 in 10.0 mi NNW 9.2 mph - N/A   Clear
9:56 AM 57.0 °F - 28.9 °F 34% 30.42 in 10.0 mi NNW 5.8 mph - N/A   Clear
10:56 AM 59.0 °F - 28.9 °F 32% 30.42 in 10.0 mi NNW 10.4 mph - N/A   Clear
11:56 AM 61.0 °F - 28.9 °F 30% 30.40 in 10.0 mi Variable 6.9 mph - N/A   Clear
12:56 PM 62.1 °F - 27.0 °F 26% 30.38 in 10.0 mi NW 4.6 mph - N/A   Clear
1:56 PM 61.0 °F - 37.9 °F 42% 30.37 in 10.0 mi SE 8.1 mph - N/A   Clear
2:56 PM 57.0 °F - 39.9 °F 53% 30.36 in 10.0 mi South 11.5 mph - N/A   Clear
3:56 PM 57.0 °F - 37.9 °F 49% 30.34 in 10.0 mi SSE 9.2 mph - N/A   Clear
4:56 PM 57.0 °F - 36.0 °F 45% 30.34 in 10.0 mi South 9.2 mph - N/A   Clear
5:56 PM 55.9 °F - 37.9 °F 51% 30.33 in 10.0 mi SSW 8.1 mph - N/A   Clear
6:56 PM 54.0 °F - 37.9 °F 55% 30.33 in 10.0 mi SSE 9.2 mph - N/A   Clear
7:56 PM 48.9 °F - 41.0 °F 74% 30.33 in 10.0 mi SSE 3.5 mph - N/A   Clear
8:56 PM 46.9 °F - 43.0 °F 86% 30.34 in 7.0 mi Calm Calm - N/A   Clear
9:24 PM 46.4 °F - 42.8 °F 87% 30.34 in 4.0 mi Calm Calm - N/A   Partly Cloudy
9:43 PM 46.4 °F - 42.8 °F 87% 30.35 in 2.5 mi Calm Calm - N/A   Mostly Cloudy
9:56 PM 46.0 °F 43.9 °F 43.0 °F 89% 30.36 in 3.0 mi SSE 4.6 mph - N/A   Mostly Cloudy
10:03 PM 44.6 °F 42.2 °F 42.8 °F 93% 30.36 in 1.8 mi SSE 4.6 mph - N/A   Mostly Cloudy
10:23 PM 44.6 °F 42.2 °F 42.8 °F 93% 30.35 in 0.8 mi South 4.6 mph - N/A   Overcast
10:39 PM 44.6 °F 43.1 °F 42.8 °F 93% 30.35 in 2.5 mi SSE 3.5 mph - N/A   Overcast
10:56 PM 45.0 °F 42.6 °F 43.0 °F 93% 30.35 in 1.2 mi SSE 4.6 mph - N/A   Overcast
11:09 PM 46.4 °F 44.3 °F 44.6 °F 93% 30.35 in 3.0 mi SSE 4.6 mph - N/A   Overcast
11:19 PM 46.4 °F 45.2 °F 44.6 °F 93% 30.35 in 4.0 mi SSE 3.5 mph - N/A   Overcast
11:54 PM 44.6 °F - 42.8 °F 93% 30.34 in 2.0 mi Calm Calm - N/A   Mostly Cloudy
11:56 PM 45.0 °F - 43.0 °F 93% 30.35 in 1.8 mi Calm Calm - N/A   Mostly Cloudy